KIMS

Details ICAO KIMS
Name Madison Muni
Region United States
Timezone America/Indiana/Indianapolis (UTC-4.0)
Plans Departing 0
Arriving 6
Stats Elevation 817 ft / 249 m (AMSL)
Location 38.759839° -85.464754°
Runways 1
Magnetic Variation 5.128° W
Sunrise 2018-05-21 10:26:19 UTC / 2018-05-21 06:26:19 Local
Sunset 2018-05-22 00:53:28 UTC / 2018-05-21 20:53:28 Local
Advertisement - Login to hide

Runways

ID Width Length Bearing (true) Bearing (mag) Surface Threshold Offset Overrun Length
03 75 ft / 23 m 4,403 ft / 1,342 m 31.65° 36.78° Asphalt 0 ft / 0 m 0 ft / 0 m
21 75 ft / 23 m 4,403 ft / 1,342 m 211.65° 216.78° Asphalt 0 ft / 0 m 0 ft / 0 m

Map

Weather


0- 5 10 15 20 25 30 35+ Temperature / ° C

Clouds and Precipitation
Forecast for 2018-05-21 12:00 UTC. Updated 25 minutes ago

Ground ~20,000 ft ~40,000 ft Winds

METAR

KIMS 210935Z AUTO 00000KT 2 1/2SM CLR 18/18 A3011 RMK AO1

TAF

Not found

Frequencies

Recorded 119.17 MHz AWOS 3
Approach 123.67 MHz LOUISVILLE APP/DEP
Unicom 122.80 MHz CTAF/UNICOM
Approach 132.07 MHz LOUISVILLE APP/DEP
Warning: Do not use this data for real-world aviation or navigation. No guarantee of current accuracy is given.